timestamp,wind_dir_avg,wind_spd_avg,wind_spd_max_dir,wind_spd_gust,battery_voltage,lat,long
2021-03-14 00:04:01+00:00,266.0,7.11,273.0,8.95,12.49,47.59359,-54.27349
2021-03-14 00:14:01+00:00,261.0,6.93,268.0,8.42,12.41,47.59359,-54.27349
2021-03-14 00:24:01+00:00,259.0,7.51,261.0,9.12,12.41,47.59359,-54.27349
2021-03-14 00:34:01+00:00,256.0,8.06,254.0,9.28,12.41,47.59359,-54.27349
2021-03-14 00:44:01+00:00,261.0,7.21,261.0,11.21,12.41,47.59359,-54.27349
2021-03-14 00:54:01+00:00,268.0,10.87,264.0,12.43,12.41,47.59359,-54.27349
2021-03-14 01:04:01+00:00,274.0,7.88,271.0,11.17,12.41,47.59359,-54.27349
2021-03-14 01:14:01+00:00,270.0,8.53,270.0,12.0,12.41,47.59359,-54.27349
2021-03-14 01:24:01+00:00,270.0,8.19,268.0,11.7,12.41,47.59359,-54.27349
2021-03-14 01:34:01+00:00,269.0,8.27,272.0,9.25,12.41,47.59359,-54.27349
2021-03-14 01:44:01+00:00,272.0,8.46,272.0,9.1,12.41,47.59359,-54.27349
2021-03-14 01:54:01+00:00,262.0,7.42,262.0,8.62,12.41,47.59359,-54.27349
2021-03-14 02:04:01+00:00,260.0,7.26,262.0,8.95,12.41,47.59359,-54.27349
2021-03-14 02:14:01+00:00,268.0,6.29,265.0,7.72,12.41,47.59359,-54.27349
2021-03-14 02:24:01+00:00,259.0,6.37,259.0,7.64,12.41,47.59359,-54.27349
2021-03-14 02:34:01+00:00,264.0,6.16,259.0,7.42,12.41,47.59359,-54.27349
2021-03-14 02:44:01+00:00,276.0,6.87,277.0,8.38,12.41,47.59359,-54.27349
2021-03-14 02:54:01+00:00,269.0,5.54,270.0,6.49,12.41,47.59359,-54.27349
2021-03-14 03:04:01+00:00,273.0,5.84,280.0,7.05,12.41,47.59359,-54.27349
2021-03-14 03:14:01+00:00,255.0,5.37,256.0,6.59,12.41,47.59359,-54.27349
2021-03-14 03:24:01+00:00,271.0,5.66,276.0,6.5,12.41,47.59359,-54.27349
2021-03-14 03:34:01+00:00,260.0,5.77,264.0,6.61,12.41,47.59359,-54.27349
2021-03-14 03:44:01+00:00,270.0,5.18,269.0,6.33,12.41,47.59359,-54.27349
2021-03-14 03:54:01+00:00,248.0,5.18,245.0,5.99,12.41,47.59359,-54.27349
2021-03-14 04:04:01+00:00,251.0,5.78,256.0,6.79,12.41,47.59359,-54.27349
2021-03-14 04:14:01+00:00,273.0,6.09,270.0,6.89,12.41,47.59359,-54.27349
2021-03-14 04:24:01+00:00,278.0,6.08,277.0,7.0,12.41,47.59359,-54.27349
2021-03-14 04:34:01+00:00,282.0,6.28,283.0,7.34,12.41,47.59359,-54.27349
2021-03-14 04:44:01+00:00,284.0,6.19,291.0,7.39,12.41,47.59359,-54.27349
2021-03-14 04:54:01+00:00,303.0,5.65,290.0,6.73,12.41,47.59359,-54.27349
2021-03-14 05:04:01+00:00,306.0,6.26,310.0,7.22,12.41,47.59359,-54.27349
2021-03-14 05:14:01+00:00,300.0,7.65,300.0,8.87,12.33,47.59359,-54.27349
2021-03-14 05:24:01+00:00,294.0,7.16,297.0,7.8,12.33,47.59359,-54.27349
2021-03-14 05:34:01+00:00,297.0,7.76,299.0,9.35,12.33,47.59359,-54.27349
2021-03-14 05:44:01+00:00,296.0,8.01,303.0,9.07,12.33,47.59359,-54.27349
2021-03-14 05:54:01+00:00,295.0,8.96,288.0,10.51,12.33,47.59359,-54.27349
2021-03-14 06:04:01+00:00,294.0,9.24,294.0,10.61,12.33,47.59359,-54.27349
2021-03-14 06:14:01+00:00,298.0,8.5,296.0,9.65,12.33,47.59359,-54.27349
2021-03-14 06:24:01+00:00,299.0,9.38,308.0,10.59,12.33,47.59359,-54.27349
2021-03-14 06:34:01+00:00,303.0,8.43,302.0,9.19,12.33,47.59359,-54.27349
2021-03-14 06:44:01+00:00,309.0,6.24,300.0,7.78,12.33,47.59359,-54.27349
2021-03-14 06:54:01+00:00,302.0,7.84,303.0,8.96,12.33,47.59359,-54.27349
2021-03-14 07:04:01+00:00,294.0,8.51,290.0,9.94,12.33,47.59359,-54.27349
2021-03-14 07:14:01+00:00,299.0,6.31,293.0,7.52,12.33,47.59359,-54.27349
2021-03-14 07:24:01+00:00,310.0,6.94,299.0,8.47,12.33,47.59359,-54.27349
2021-03-14 07:34:01+00:00,311.0,6.34,308.0,7.64,12.33,47.59359,-54.27349
2021-03-14 07:44:01+00:00,312.0,6.59,322.0,8.05,12.33,47.59359,-54.27349
2021-03-14 07:54:01+00:00,304.0,6.22,297.0,7.33,12.33,47.59359,-54.27349
2021-03-14 08:04:01+00:00,297.0,7.3,295.0,9.36,12.33,47.59359,-54.27349
2021-03-14 08:14:01+00:00,305.0,7.22,300.0,8.84,12.25,47.59359,-54.27349
2021-03-14 08:24:01+00:00,296.0,7.4,298.0,8.54,12.25,47.59359,-54.27349
2021-03-14 08:34:01+00:00,300.0,7.91,304.0,9.06,12.25,47.59359,-54.27349
2021-03-14 08:44:01+00:00,299.0,7.31,294.0,8.61,12.25,47.59359,-54.27349
2021-03-14 08:54:01+00:00,288.0,7.21,286.0,8.91,12.25,47.59359,-54.27349
2021-03-14 09:04:01+00:00,302.0,6.91,302.0,7.97,12.25,47.59359,-54.27349
2021-03-14 09:14:01+00:00,299.0,6.71,301.0,7.82,12.25,47.59359,-54.27349
2021-03-14 09:24:01+00:00,300.0,7.0,288.0,9.4,12.25,47.59359,-54.27349
2021-03-14 09:34:01+00:00,300.0,5.79,308.0,7.53,12.25,47.59359,-54.27349
2021-03-14 09:44:01+00:00,303.0,6.73,305.0,7.85,12.25,47.59359,-54.27349
2021-03-14 09:54:01+00:00,305.0,7.39,305.0,8.37,12.25,47.59359,-54.27349
2021-03-14 10:04:01+00:00,301.0,6.89,310.0,9.22,12.25,47.59359,-54.27349
2021-03-14 10:14:01+00:00,306.0,7.55,310.0,8.63,12.17,47.59359,-54.27349
2021-03-14 10:24:01+00:00,310.0,8.55,307.0,9.92,12.17,47.59359,-54.27349
2021-03-14 10:34:01+00:00,305.0,9.04,305.0,10.49,12.17,47.59359,-54.27349
2021-03-14 10:44:01+00:00,307.0,8.95,308.0,10.24,12.17,47.59359,-54.27349
2021-03-14 10:54:01+00:00,315.0,7.93,307.0,9.72,12.17,47.59359,-54.27349
2021-03-14 11:04:01+00:00,309.0,8.53,306.0,10.51,12.17,47.59359,-54.27349
2021-03-14 11:14:01+00:00,308.0,6.1,305.0,7.54,13.44,47.59359,-54.27349
2021-03-14 11:24:01+00:00,309.0,5.95,307.0,7.9,13.44,47.59359,-54.27349
2021-03-14 11:34:01+00:00,309.0,4.32,308.0,5.43,13.44,47.59359,-54.27349
2021-03-14 11:44:01+00:00,290.0,4.43,285.0,5.67,13.44,47.59359,-54.27349
2021-03-14 11:54:01+00:00,297.0,4.07,298.0,5.29,13.44,47.59359,-54.27349
2021-03-14 12:04:01+00:00,310.0,3.95,305.0,5.18,13.44,47.59359,-54.27349
2021-03-14 12:14:01+00:00,316.0,4.18,311.0,4.74,13.84,47.59359,-54.27349
2021-03-14 12:24:01+00:00,335.0,7.58,337.0,9.07,13.84,47.59359,-54.27349
2021-03-14 12:34:01+00:00,330.0,5.82,336.0,7.83,13.84,47.59359,-54.27349
2021-03-14 12:44:01+00:00,315.0,5.72,314.0,7.46,13.84,47.59359,-54.27349
2021-03-14 12:54:01+00:00,318.0,7.64,317.0,8.92,13.84,47.59359,-54.27349
2021-03-14 13:04:01+00:00,317.0,6.82,321.0,7.39,13.84,47.59359,-54.27349
2021-03-14 13:14:01+00:00,335.0,5.18,327.0,5.92,13.68,47.59359,-54.27349
2021-03-14 13:24:01+00:00,328.0,5.05,330.0,5.61,13.68,47.59359,-54.27349
2021-03-14 13:34:01+00:00,311.0,6.67,312.0,7.37,13.68,47.59359,-54.27349
2021-03-14 13:44:01+00:00,318.0,6.0,322.0,6.79,13.68,47.59359,-54.27349
2021-03-14 13:54:01+00:00,308.0,6.2,305.0,7.64,13.68,47.59359,-54.27349
2021-03-14 14:04:01+00:00,322.0,6.85,311.0,8.3,13.68,47.59359,-54.27349
2021-03-14 14:14:01+00:00,295.0,7.88,294.0,8.63,13.84,47.59359,-54.27349
2021-03-14 14:24:01+00:00,305.0,5.81,309.0,6.65,13.84,47.59359,-54.27349
2021-03-14 14:34:01+00:00,300.0,6.52,298.0,8.03,13.84,47.59359,-54.27349
2021-03-14 14:44:01+00:00,293.0,4.78,303.0,5.22,13.84,47.59359,-54.27349
2021-03-14 14:54:01+00:00,318.0,5.29,319.0,6.0,13.84,47.59359,-54.27349
2021-03-14 15:04:01+00:00,322.0,5.15,322.0,6.03,13.84,47.59359,-54.27349
2021-03-14 15:14:01+00:00,318.0,3.69,321.0,4.12,13.84,47.59359,-54.27349
2021-03-14 15:24:01+00:00,283.0,5.83,285.0,6.73,13.84,47.59359,-54.27349
2021-03-14 15:34:01+00:00,300.0,4.56,305.0,5.23,13.84,47.59359,-54.27349
2021-03-14 15:44:01+00:00,304.0,4.97,300.0,5.58,13.84,47.59359,-54.27349
2021-03-14 15:54:01+00:00,305.0,4.55,309.0,5.4,13.84,47.59359,-54.27349
2021-03-14 16:04:01+00:00,309.0,4.63,314.0,5.36,13.84,47.59359,-54.27349
2021-03-14 16:14:01+00:00,296.0,4.89,293.0,5.74,13.84,47.59359,-54.27349
2021-03-14 16:24:01+00:00,290.0,3.65,294.0,4.6,13.84,47.59359,-54.27349
2021-03-14 16:34:01+00:00,297.0,5.31,287.0,6.52,13.84,47.59359,-54.27349
2021-03-14 16:44:01+00:00,285.0,5.32,286.0,5.82,13.84,47.59359,-54.27349
2021-03-14 16:54:01+00:00,296.0,5.9,294.0,6.49,13.84,47.59359,-54.27349
2021-03-14 17:04:01+00:00,309.0,5.57,308.0,6.1,13.84,47.59359,-54.27349
2021-03-14 17:14:01+00:00,291.0,4.38,295.0,4.92,13.68,47.59359,-54.27349
2021-03-14 17:24:01+00:00,317.0,4.38,321.0,5.15,13.68,47.59359,-54.27349
2021-03-14 17:34:01+00:00,280.0,3.66,285.0,4.19,13.68,47.59359,-54.27349
2021-03-14 17:44:01+00:00,327.0,3.96,303.0,5.15,13.68,47.59359,-54.27349
2021-03-14 17:54:01+00:00,315.0,2.12,35.0,4.23,13.68,47.59359,-54.27349
2021-03-14 18:04:01+00:00,312.0,3.56,310.0,4.17,13.68,47.59359,-54.27349
2021-03-14 18:14:01+00:00,312.0,5.32,312.0,5.79,13.92,47.59359,-54.27349
2021-03-14 18:24:01+00:00,287.0,4.4,293.0,4.99,13.92,47.59359,-54.27349
2021-03-14 18:34:01+00:00,319.0,5.02,310.0,6.67,13.92,47.59359,-54.27349
2021-03-14 18:44:01+00:00,284.0,3.5,291.0,4.12,13.92,47.59359,-54.27349
2021-03-14 18:54:01+00:00,294.0,4.87,298.0,5.32,13.92,47.59359,-54.27349
2021-03-14 19:04:01+00:00,303.0,4.06,311.0,4.72,13.92,47.59359,-54.27349
2021-03-14 19:14:01+00:00,289.0,4.35,284.0,4.93,13.92,47.59359,-54.27349
2021-03-14 19:24:01+00:00,303.0,3.3,297.0,4.4,13.92,47.59359,-54.27349
2021-03-14 19:34:01+00:00,279.0,3.92,280.0,4.44,13.92,47.59359,-54.27349
2021-03-14 19:44:01+00:00,286.0,3.8,289.0,4.09,13.92,47.59359,-54.27349
2021-03-14 19:54:01+00:00,280.0,3.03,275.0,3.67,13.92,47.59359,-54.27349
2021-03-14 20:04:01+00:00,327.0,1.8,305.0,3.95,13.92,47.59359,-54.27349
2021-03-14 20:14:01+00:00,323.0,1.22,286.0,3.98,13.6,47.59359,-54.27349
2021-03-14 20:24:01+00:00,36.0,1.48,292.0,3.59,13.6,47.59359,-54.27349
2021-03-14 20:34:01+00:00,56.0,2.07,60.0,2.56,13.6,47.59359,-54.27349
2021-03-14 20:44:01+00:00,347.0,1.66,343.0,2.12,13.6,47.59359,-54.27349
2021-03-14 20:54:01+00:00,15.0,2.51,48.0,3.74,13.6,47.59359,-54.27349
2021-03-14 21:04:01+00:00,60.0,2.33,69.0,2.67,13.6,47.59359,-54.27349
2021-03-14 21:14:01+00:00,55.0,2.82,53.0,3.26,13.29,47.59359,-54.27349
2021-03-14 21:24:01+00:00,345.0,1.64,37.0,2.07,13.29,47.59359,-54.27349
2021-03-14 21:34:01+00:00,32.0,3.2,36.0,3.92,13.29,47.59359,-54.27349
2021-03-14 21:44:01+00:00,41.0,2.47,48.0,3.34,13.29,47.59359,-54.27349
2021-03-14 21:54:01+00:00,3.0,2.55,45.0,3.7,13.29,47.59359,-54.27349
2021-03-14 22:04:01+00:00,43.0,2.29,48.0,2.59,13.29,47.59359,-54.27349
2021-03-14 22:14:01+00:00,38.0,2.61,46.0,3.28,12.65,47.59359,-54.27349
2021-03-14 22:24:01+00:00,6.0,2.32,41.0,3.08,12.65,47.59359,-54.27349
2021-03-14 22:34:01+00:00,335.0,1.52,325.0,1.88,12.65,47.59359,-54.27349
2021-03-14 22:44:01+00:00,342.0,1.14,341.0,1.75,12.65,47.59359,-54.27349
2021-03-14 22:54:01+00:00,343.0,1.15,337.0,1.42,12.65,47.59359,-54.27349
2021-03-14 23:04:01+00:00,268.0,0.62,264.0,1.11,12.65,47.59359,-54.27349
2021-03-14 23:14:01+00:00,274.0,0.73,274.0,1.38,12.57,47.59359,-54.27349
2021-03-14 23:24:01+00:00,201.0,1.07,220.0,1.43,12.57,47.59359,-54.27349
2021-03-14 23:34:01+00:00,247.0,0.82,250.0,1.16,12.57,47.59359,-54.27349
2021-03-14 23:44:01+00:00,253.0,4.24,257.0,4.64,12.57,47.59359,-54.27349
2021-03-14 23:54:01+00:00,253.0,4.86,250.0,5.37,12.57,47.59359,-54.27349
